Location: Bucknum
(43.0208°N, 106.6262°W)
Time: 03:25:36
(UTC+00:00)

Envisat - Visible Passes

Search period start: 21 January 2022 00:00
Search period end: 31 January 2022 00:00
Orbit: 764 x 766 km, 98.2° (Epoch: 20 January)

Date Brightness Start Highest point End Pass type
(mag) Time Alt. Az. Time Alt. Az. Time Alt. Az.
21 Jan 5.5 10:50:26 10° NE 10:53:44 17° E 10:57:02 10° SE visible
21 Jan 2.9 12:28:08 10° N 12:33:08 58° WNW 12:38:06 10° SSW visible
22 Jan 3.3 11:51:14 10° NNE 11:56:18 65° ESE 12:01:20 10° S visible
22 Jan 4.4 13:31:32 10° NNW 13:34:47 17° WNW 13:38:00 10° W visible
23 Jan 6.5 00:50:30 10° W 00:51:17 10° W 00:52:04 10° WNW visible
23 Jan 4.7 11:14:50 10° NE 11:19:16 29° E 11:23:39 10° SSE visible
23 Jan 3.5 12:53:42 10° N 12:58:17 34° WNW 13:02:50 10° SW visible
24 Jan 5.8 10:39:34 10° ENE 10:42:01 13° E 10:44:27 10° ESE visible
24 Jan 2.8 12:16:29 10° N 12:21:34 74° WNW 12:26:37 10° SSW visible
24 Jan 4.8 13:58:59 10° NW 13:59:41 10° WNW 14:00:22 10° WNW visible
25 Jan 3.7 11:39:43 10° NNE 11:44:41 51° E 11:49:36 10° S visible
25 Jan 4.1 13:19:33 10° NNW 13:23:19 21° WNW 13:27:04 10° WSW visible
26 Jan 6.1 00:37:02 10° WSW 00:39:32 14° W 00:42:02 10° WNW visible
26 Jan 5.1 11:03:32 10° NE 11:07:34 23° E 11:11:35 10° SE visible
26 Jan 3.3 12:41:57 10° N 12:46:46 43° WNW 12:51:32 10° SW visible
27 Jan 6.0 10:29:49 10° E 10:30:16 10° E 10:30:44 10° E visible
27 Jan 2.9 12:04:53 10° NNE 12:09:59 88° ESE 12:15:04 10° SSW visible
27 Jan 4.6 13:46:00 10° NNW 13:48:16 13° WNW 13:50:31 10° W visible
28 Jan 4.2 11:28:15 10° NNE 11:33:02 40° E 11:37:47 10° SSE visible
28 Jan 3.9 13:07:39 10° N 13:11:50 26° WNW 13:16:00 10° WSW visible
29 Jan 5.4 10:52:22 10° NE 10:55:52 18° E 10:59:21 10° SE visible
29 Jan 3.0 12:30:15 10° N 12:35:13 55° WNW 12:40:09 10° SSW visible
30 Jan 3.2 11:53:18 10° NNE 11:58:23 70° ESE 12:03:27 10° S visible
30 Jan 4.4 13:33:46 10° NNW 13:36:50 16° WNW 13:39:52 10° W visible
